[[{"header":{"parameterUnit":"m.s-1","parameterCategory":2,"la1":30.2991,"la2":30.254,"lo1":-89.0895,"lo2":-89.0444,"dy":0.0017,"dx":0.0017,"nx":28,"ny":28,"refTime":"2023-08-14T09:00:00:Z","depth":"0","parameterNumber":2,"parameterNumberName":"U-component_of_CURRENTS"},"data":[0,0,0,0,0,0,0,0,0,0,0,0,0,0,0,0,0,0,0,0,0,0,0,0,0,0,0,0,0,0,0,0,0,0,0,0,0,0,0,0,0,0,0,0,0,0,0,0,0,0,0,0,0,0,0,0,0,0,0.3372,0.3374,0,0.3451,0.3451,0.3452,0.3429,0.3428,0.3427,0.3425,0.3491,0.3494,0.3497,0,0,0,0,0,0,0,0,0,0,0,0,0,0.3212,0.3214,0.3372,0.3374,0.3375,0.345,0.3451,0.3452,0.343,0.3428,0.3426,0.3425,0.3491,0.3494,0.3498,0,0,0,0,0,0,0,0,0,0,0,0,0,0.3282,0.3215,0.3372,0.3375,0.3376,0.345,0.3451,0.3452,0.343,0.3428,0.3426,0.3424,0.3489,0.3494,0.3498,0.3566,0,0,0.3512,0.3514,0,0,0,0,0,0,0,0,0.3278,0.3288,0.3373,0.3375,0.3376,0.3431,0.3419,0.3491,0.343,0.3406,0.3425,0.3423,0.3474,0.3479,0.3494,0.3569,0.3572,0.3512,0.3515,0.3517,0.3518,0,0,0,0,0,0,0,0.3273,0.3284,0.34,0.3375,0.3377,0.3375,0.3383,0.3432,0.3448,0.3408,0.3408,0.3422,0.3473,0.349,0.3496,0.3573,0.3512,0.3516,0.3519,0.3521,0.3784,0.3788,0,0,0,0,0,0,0.3272,0.328,0.3398,0.3403,0.3325,0.338,0.3388,0.3413,0.3447,0.3452,0.3423,0.342,0.3483,0.349,0.3498,0.3628,0.3517,0.3521,0.3524,0.378,0.3785,0.3789,0,0,0,0,0,0,0.3268,0.3282,0.3395,0.3344,0.3359,0.3385,0.3413,0.3416,0.3437,0.346,0.3462,0.3443,0.3482,0.3492,0.3568,0.3628,0.3523,0.3527,0.3775,0.3781,0.3787,0.3857,0,0,0,0,0,0,0.3264,0.3281,0.3305,0.3345,0.3362,0.3456,0.3415,0.3419,0.345,0.3447,0.3478,0.3481,0.3481,0.3562,0.3573,0.3632,0.3531,0.3769,0.3777,0.3785,0.3849,0.3865,0.3878,0,0,0,0,0,0.3258,0.3307,0.3306,0.332,0.3392,0.3459,0.3468,0.3476,0.3453,0.3483,0.3507,0.348,0.362,0.3569,0.3581,0.3643,0.3765,0.3775,0.3784,0.3842,0.3862,0.3878,0,0,0,0,0,0,0.3259,0.3311,0.331,0.3374,0.3417,0.3456,0.3491,0.349,0.3532,0.3528,0.353,0.3539,0.3642,0.3641,0.3583,0.3749,0.3692,0.3704,0.3732,0.375,0.3765,0.3775,0.3535,0,0,0,0,0,0.327,0.3313,0.3361,0.3412,0.3437,0.3463,0.3491,0.3499,0.3539,0.3553,0.3573,0.3616,0.3695,0.3715,0.3781,0.3856,0.3909,0.391,0.3925,0.3937,0.3959,0.4112,0.4142,0.3821,0.3821,0.3821,0,0,0.3283,0.3319,0.3343,0.3414,0.3445,0.3504,0.3475,0.3531,0.3579,0.3558,0.3631,0.3679,0.3735,0.3834,0.3877,0.383,0.4058,0.3949,0.3958,0.3975,0.4126,0.4157,0.4184,0.3828,0.3826,0.3825,0,0,0.3334,0.3367,0.3416,0.346,0.3518,0.3544,0.3563,0.3612,0.3633,0.3711,0.373,0.382,0.389,0.3962,0.4003,0.4145,0.4148,0.4151,0.4209,0.4357,0.4384,0.4409,0.4511,0.4544,0.4135,0.4135,0.4135,0,0.3347,0.3411,0.3443,0.3505,0.3544,0.3565,0.3625,0.3671,0.3735,0.3767,0.3744,0.3926,0.3968,0.4121,0.4165,0.418,0.4238,0.4125,0.4374,0.44,0.4424,0.4523,0.4558,0.414,0.4139,0.4139,0.4138,0,0.3432,0.3482,0.3522,0.3599,0.3651,0.371,0.377,0.3821,0.3838,0.3874,0.4015,0.4094,0.4196,0.4232,0.4235,0.4429,0.4408,0.439,0.4319,0.446,0.4555,0.4591,0.4146,0.4144,0.4143,0.4142,0,0,0.3464,0.3557,0.3571,0.3596,0.3698,0.3739,0.3844,0.3931,0.3981,0.4068,0.416,0.4321,0.4348,0.4403,0.4442,0.4554,0.4772,0.453,0.4535,0.4612,0.5074,0.5006,0.5037,0.4784,0.4791,0.4796,0.5069,0,0.3515,0.3606,0.3658,0.3744,0.3791,0.385,0.3933,0.4015,0.4078,0.4172,0.4291,0.4397,0.4418,0.4463,0.4604,0.4732,0.487,0.4698,0.4943,0.4951,0.4858,0.5079,0.4847,0.5067,0.5103,0.5109,0.5114,0,0.3581,0.3627,0.3705,0.3778,0.3806,0.3861,0.3968,0.4049,0.4195,0.425,0.4396,0.4465,0.4681,0.4654,0.4996,0.4877,0.5001,0.5089,0.5101,0.5041,0.4951,0.4938,0.513,0.4955,0.5168,0.5164,0.516,0,0.3553,0.3658,0.37,0.3734,0.3835,0.3873,0.393,0.4059,0.4118,0.43,0.4359,0.4609,0.472,0.4954,0.5141,0.5086,0.548,0.5427,0.5496,0.549,0.5346,0.5316,0.5384,0.57,0.57,0.5699,0.5698,0,0.3578,0.3608,0.3675,0.3697,0.374,0.3832,0.3894,0.399,0.413,0.4218,0.4389,0.451,0.4799,0.5023,0.5208,0.5476,0.5561,0.5575,0.5592,0.5362,0.5332,0.5211,0.5075,0.5709,0.5707,0.5705,0.5703,0,0.3528,0.3582,0.3616,0.3698,0.3718,0.3742,0.3832,0.3886,0.403,0.4164,0.4223,0.4479,0.4781,0.5052,0.5421,0.5535,0.5638,0.586,0.5546,0.5522,0.539,0.5266,0.5253,0.5117,0.6008,0.6008,0.6009,0,0.3503,0.3519,0.3576,0.3582,0.3606,0.365,0.3685,0.3822,0.3891,0.414,0.4207,0.4499,0.4711,0.5213,0.5473,0.5822,0.5645,0.5776,0.5652,0.5412,0.5289,0.5089,0.4959,0.5492,0.5488,0.5485,0.5483,0,0.3443,0.3455,0.3474,0.3485,0.3505,0.3531,0.3596,0.3623,0.3812,0.3952,0.4153,0.4332,0.4778,0.5027,0.544,0.5617,0.5442,0.572,0.5578,0.5003,0.4688,0.455,0.5248,0.5454,0.5457,0.5459,0.5461,0.5462,0.337,0.3355,0.3371,0.3375,0.3386,0.3386,0.3383,0.3491,0.359,0.3783,0.4014,0.426,0.4601,0.5144,0.5272,0.5295,0.5294,0.5213,0.5122,0.4977,0.4712,0.5334,0.5481,0.5484,0.5486,0.5488,0.549,0,0.3275,0.3269,0.3266,0.3245,0.3207,0.3264,0.3306,0.3313,0.3398,0.3646,0.3843,0.4144,0.4387,0.4644,0.4813,0.4717,0.4559,0.4603,0.4248,0.4187,0.4856,0.4696,0.4547,0.4547,0.4547,0.4547,0.4548,0.4548,0.3222,0.3179,0.318,0.3076,0.3056,0.3006,0.301,0.3068,0.3206,0.3369,0.3537,0.3726,0.4025,0.4224,0.4185,0.4131,0.3825,0.3691,0.3711,0.4125,0.4173,0.4218,0.4041,0.3757,0.3756,0.2907,0.29,0.2894]},{"header":{"parameterUnit":"m.s-1","parameterCategory":2,"la1":30.2991,"la2":30.254,"lo1":-89.0895,"lo2":-89.0444,"dy":0.0017,"dx":0.0017,"nx":28,"ny":28,"refTime":"2023-08-14T09:00:00:Z","depth":"0","parameterNumber":3,"parameterNumberName":"V-component_of_CURRENTS"},"data":[0,0,0,0,0,0,0,0,0,0,0,0,0,0,0,0,0,0,0,0,0,0,0,0,0,0,0,0,0,0,0,0,0,0,0,0,0,0,0,0,0,0,0,0,0,0,0,0,0,0,0,0,0,0,0,0,0,0,0.0497,0.0497,0,0.0489,0.0489,0.0489,0.0424,0.0422,0.0421,0.0419,0.0356,0.0356,0.0356,0,0,0,0,0,0,0,0,0,0,0,0,0,0.0425,0.0427,0.0497,0.0497,0.0496,0.0489,0.0489,0.0489,0.0424,0.0422,0.042,0.0418,0.0356,0.0356,0.0356,0,0,0,0,0,0,0,0,0,0,0,0,0,0.0442,0.0427,0.0497,0.0462,0.0459,0.0489,0.0489,0.0489,0.0425,0.0422,0.042,0.0417,0.0356,0.0356,0.0356,0.0407,0,0,0.0355,0.0355,0,0,0,0,0,0,0,0,0.0441,0.0445,0.0468,0.0465,0.0461,0.0454,0.044,0.0458,0.0426,0.0439,0.0419,0.0416,0.0385,0.0382,0.0389,0.0404,0.0401,0.0355,0.0355,0.0355,0.0355,0,0,0,0,0,0,0,0.044,0.0444,0.0495,0.0468,0.0464,0.0436,0.0436,0.0443,0.0427,0.0438,0.0433,0.0431,0.0382,0.0389,0.0387,0.04,0.0355,0.0355,0.0355,0.0355,0.047,0.0473,0,0,0,0,0,0,0.0443,0.0444,0.0495,0.0495,0.0443,0.044,0.044,0.046,0.0428,0.042,0.0433,0.0428,0.0391,0.0387,0.0384,0.0465,0.0355,0.0355,0.0355,0.0467,0.0471,0.0474,0,0,0,0,0,0,0.0442,0.0449,0.0496,0.0466,0.047,0.0444,0.0467,0.0461,0.0466,0.0424,0.0415,0.0443,0.0389,0.0384,0.0413,0.0461,0.0355,0.0355,0.0463,0.0468,0.0473,0.0612,0,0,0,0,0,0,0.0441,0.0449,0.0479,0.0468,0.0472,0.0536,0.0469,0.0463,0.0468,0.0461,0.043,0.0421,0.0386,0.0413,0.0413,0.0459,0.0355,0.046,0.0466,0.0471,0.0604,0.0621,0.0636,0,0,0,0,0,0.0438,0.0497,0.0481,0.0487,0.051,0.0538,0.054,0.0511,0.0471,0.05,0.0477,0.0422,0.0449,0.0417,0.0415,0.0462,0.0457,0.0464,0.0471,0.0596,0.0618,0.0636,0,0,0,0,0,0,0.0495,0.0495,0.0477,0.0536,0.0542,0.0527,0.0557,0.0526,0.0532,0.0524,0.0467,0.0461,0.0502,0.0473,0.0437,0.0514,0.0443,0.045,0.0539,0.0559,0.0575,0.0594,0.0355,0,0,0,0,0,0.0519,0.0555,0.0548,0.0598,0.0606,0.0581,0.059,0.0571,0.0566,0.0565,0.0542,0.0527,0.0535,0.0537,0.054,0.0588,0.0547,0.0617,0.0633,0.0647,0.0664,0.0651,0.0667,0.0497,0.0497,0.0497,0,0,0.0555,0.056,0.0582,0.0611,0.0613,0.0653,0.0582,0.0613,0.0646,0.056,0.0609,0.0586,0.0562,0.0614,0.0629,0.059,0.0675,0.0655,0.0667,0.0677,0.066,0.0676,0.069,0.0502,0.0501,0.0501,0,0,0.064,0.0652,0.0702,0.0718,0.0729,0.0722,0.0734,0.073,0.073,0.0773,0.072,0.0735,0.0742,0.0742,0.0738,0.0851,0.0763,0.0843,0.0939,0.0927,0.094,0.0951,0.0921,0.0929,0.0849,0.0849,0.085,0,0.068,0.0742,0.0725,0.0776,0.0802,0.0758,0.0819,0.0829,0.0834,0.0849,0.0808,0.0837,0.081,0.087,0.0903,0.0889,0.0852,0.0863,0.0946,0.0956,0.0965,0.0932,0.0938,0.0857,0.0856,0.0855,0.0855,0,0.0787,0.0842,0.0881,0.0926,0.0957,0.1009,0.1009,0.1042,0.1025,0.1015,0.1066,0.1039,0.1049,0.1047,0.1007,0.1069,0.1013,0.0966,0.0891,0.099,0.0949,0.0953,0.0868,0.0865,0.0863,0.0861,0,0,0.0866,0.0939,0.0954,0.0997,0.104,0.1076,0.115,0.1199,0.1243,0.1239,0.1297,0.1306,0.1263,0.1259,0.1212,0.1202,0.1228,0.1116,0.1111,0.1078,0.1184,0.1126,0.1123,0.1183,0.1185,0.1186,0.1129,0,0.0955,0.1066,0.1085,0.1204,0.1264,0.1268,0.1341,0.1374,0.1387,0.1435,0.1403,0.1437,0.1351,0.1359,0.134,0.1266,0.1245,0.1247,0.1101,0.1097,0.1026,0.1129,0.104,0.0981,0.1132,0.1133,0.1133,0,0.1052,0.1113,0.1233,0.1336,0.1365,0.1427,0.1526,0.1586,0.1632,0.164,0.1656,0.1615,0.1626,0.1525,0.1447,0.1446,0.1333,0.1255,0.125,0.1152,0.1048,0.0908,0.0981,0.0693,0.1138,0.1137,0.1137,0,0.1098,0.1224,0.1318,0.1354,0.1458,0.1519,0.1578,0.1643,0.1704,0.1767,0.1807,0.179,0.1789,0.1676,0.1514,0.1481,0.1399,0.133,0.117,0.1163,0.1039,0.1019,0.081,0.1265,0.1265,0.1265,0.1265,0,0.1184,0.1263,0.1345,0.1398,0.1518,0.1575,0.1699,0.1753,0.184,0.1925,0.1906,0.1967,0.1822,0.1749,0.1581,0.1401,0.1448,0.1214,0.116,0.1086,0.1072,0.0774,0.0661,0.1263,0.1263,0.1264,0.1264,0,0.1215,0.1275,0.1382,0.1497,0.1539,0.1619,0.1757,0.1846,0.1925,0.2041,0.2069,0.2097,0.2034,0.1862,0.1684,0.1492,0.1168,0.123,0.1148,0.1087,0.0677,0.0578,0.0392,0.0298,0.1067,0.1066,0.1064,0,0.1235,0.1295,0.1424,0.1486,0.1538,0.166,0.1752,0.1868,0.1964,0.2123,0.2186,0.2186,0.2213,0.195,0.1619,0.1334,0.1115,0.103,0.0962,0.0667,0.0516,0.046,0.0392,0.0845,0.0842,0.0839,0.0837,0,0.1259,0.13,0.1376,0.15,0.1604,0.1735,0.1874,0.1964,0.2117,0.2243,0.2397,0.2448,0.2217,0.194,0.1539,0.1295,0.0834,0.0971,0.0685,0.0359,0.0267,0.0146,0.0855,0.0816,0.0818,0.0819,0.0821,0.0821,0.1248,0.1298,0.1393,0.1513,0.1641,0.1802,0.192,0.2086,0.2272,0.2506,0.2533,0.2666,0.2207,0.1686,0.1319,0.056,0.0677,0.0324,0.0238,0.0217,0.0098,0.0765,0.0655,0.0656,0.0657,0.0658,0.0659,0,0.1219,0.1293,0.1403,0.1559,0.1701,0.1778,0.1999,0.2147,0.2382,0.2618,0.278,0.2582,0.2009,0.1397,0.0406,-0.0106,-0.0254,-0.0368,-0.0508,-0.0531,0.0048,0.0004,-0.0276,-0.0276,-0.0275,-0.0275,-0.0275,-0.0274,0.1205,0.1284,0.1355,0.1566,0.1695,0.1902,0.2037,0.2282,0.2494,0.2758,0.283,0.2846,0.225,0.0589,-0.0603,-0.0846,-0.1128,-0.118,-0.1263,-0.0955,-0.0899,-0.0845,-0.0919,-0.1388,-0.1389,-0.1834,-0.184,-0.1844]}],[{"header":{"parameterUnit":"m.s-1","parameterCategory":2,"la1":30.2991,"la2":30.254,"lo1":-89.0895,"lo2":-89.0444,"dy":0.0017,"dx":0.0017,"nx":28,"ny":28,"refTime":"2023-08-14T09:00:00:Z","depth":"2","parameterNumber":2,"parameterNumberName":"U-component_of_CURRENTS"},"data":[0,0,0,0,0,0,0,0,0,0,0,0,0,0,0,0,0,0,0,0,0,0,0,0,0,0,0,0,0,0,0,0,0,0,0,0,0,0,0,0,0,0,0,0,0,0,0,0,0,0,0,0,0,0,0,0,0,0,0.2431,0.2432,0,0.2543,0.2544,0.2545,0.2548,0.2548,0.2547,0.2546,0.2557,0.2558,0.256,0,0,0,0,0,0,0,0,0,0,0,0,0,0.2187,0.2191,0.2431,0.2432,0.2434,0.2543,0.2544,0.2546,0.2549,0.2547,0.2546,0.2545,0.2557,0.2558,0.256,0,0,0,0,0,0,0,0,0,0,0,0,0,0.2291,0.2193,0.243,0.2452,0.2456,0.2543,0.2544,0.2546,0.2549,0.2547,0.2546,0.2545,0.2556,0.2558,0.256,0.26,0,0,0.2565,0.2566,0,0,0,0,0,0,0,0,0.2285,0.23,0.2447,0.2451,0.2455,0.2535,0.2463,0.2561,0.2549,0.2509,0.2546,0.2544,0.2544,0.2547,0.2566,0.26,0.2601,0.2566,0.2567,0.2567,0.2568,0,0,0,0,0,0,0,0.2278,0.2295,0.2471,0.245,0.2454,0.2446,0.2459,0.2482,0.2528,0.2512,0.2514,0.2534,0.2545,0.2565,0.2566,0.2601,0.2566,0.2567,0.2568,0.2569,0.2735,0.2738,0,0,0,0,0,0,0.2278,0.2289,0.2467,0.2474,0.237,0.2452,0.2467,0.2507,0.253,0.2534,0.2535,0.2534,0.2562,0.2564,0.2567,0.2677,0.2567,0.2569,0.257,0.2731,0.2735,0.2739,0,0,0,0,0,0,0.2273,0.2294,0.2463,0.2386,0.2407,0.2459,0.2503,0.251,0.2534,0.2549,0.255,0.2553,0.2561,0.2564,0.2615,0.2675,0.257,0.2572,0.2727,0.2733,0.2737,0.2858,0,0,0,0,0,0,0.2265,0.2291,0.2319,0.2387,0.2412,0.2532,0.2505,0.2513,0.2551,0.255,0.2565,0.2565,0.256,0.2613,0.2617,0.2675,0.2573,0.2723,0.273,0.2736,0.285,0.2867,0.2881,0,0,0,0,0,0.2257,0.2307,0.232,0.2342,0.245,0.2534,0.2547,0.2573,0.2553,0.2583,0.2598,0.2564,0.2655,0.2617,0.2621,0.2682,0.272,0.2728,0.2735,0.2843,0.2863,0.2881,0,0,0,0,0,0,0.2221,0.2315,0.233,0.2408,0.2472,0.2537,0.2574,0.2581,0.2618,0.2615,0.2605,0.2609,0.2681,0.2666,0.2624,0.275,0.2683,0.2692,0.2764,0.2783,0.2798,0.282,0.2574,0,0,0,0,0,0.2227,0.229,0.237,0.2435,0.2469,0.2519,0.2553,0.2577,0.262,0.2634,0.2646,0.2669,0.2718,0.2734,0.2769,0.283,0.2828,0.2874,0.2889,0.2902,0.2925,0.2973,0.2994,0.2764,0.2763,0.2763,0,0,0.223,0.2293,0.2326,0.2431,0.248,0.2543,0.2536,0.2607,0.2653,0.263,0.2692,0.2726,0.2749,0.2831,0.2861,0.2821,0.2971,0.2912,0.2923,0.2939,0.2983,0.3005,0.3025,0.2769,0.2768,0.2767,0,0,0.226,0.2328,0.2379,0.2442,0.253,0.2573,0.2593,0.2668,0.2697,0.2771,0.2777,0.2847,0.2896,0.2944,0.2968,0.3088,0.3056,0.3098,0.3189,0.3235,0.3254,0.3271,0.3307,0.3326,0.3099,0.31,0.31,0,0.2253,0.2336,0.2406,0.2472,0.2523,0.2584,0.264,0.2697,0.2775,0.2815,0.2802,0.2938,0.2955,0.3071,0.3132,0.3123,0.3141,0.3112,0.3255,0.3271,0.3286,0.3318,0.3338,0.3106,0.3106,0.3105,0.3104,0,0.2316,0.2382,0.2426,0.2527,0.2592,0.2662,0.2748,0.2814,0.2852,0.2904,0.3027,0.3082,0.316,0.3192,0.3206,0.334,0.3318,0.3271,0.3202,0.3316,0.3344,0.3361,0.3116,0.3114,0.3112,0.311,0,0,0.2292,0.2435,0.2448,0.249,0.2624,0.268,0.2788,0.2897,0.2954,0.3059,0.3144,0.3281,0.3321,0.3356,0.3391,0.3453,0.3587,0.3428,0.3427,0.3456,0.3699,0.3497,0.3496,0.3567,0.357,0.3573,0.3678,0,0.2311,0.2413,0.2491,0.2586,0.2643,0.2746,0.2833,0.2944,0.303,0.3132,0.3244,0.3342,0.3378,0.3433,0.3516,0.3569,0.3639,0.3563,0.3591,0.3593,0.3392,0.3511,0.3273,0.333,0.3695,0.3698,0.37,0,0.2336,0.2402,0.2486,0.2605,0.264,0.271,0.2853,0.2942,0.3114,0.3183,0.333,0.3409,0.3583,0.3558,0.3738,0.3692,0.3727,0.3752,0.3755,0.3536,0.3423,0.3275,0.3347,0.3729,0.3726,0.3724,0.3722,0,0.2265,0.2396,0.2453,0.25,0.2649,0.271,0.2797,0.2958,0.3038,0.323,0.331,0.3499,0.3602,0.3701,0.381,0.3784,0.396,0.3899,0.3754,0.3739,0.3525,0.3483,0.4012,0.4012,0.4011,0.4011,0.4011,0,0.2253,0.2294,0.2423,0.2457,0.2526,0.2659,0.2754,0.2869,0.304,0.3153,0.3335,0.3463,0.3648,0.3778,0.3844,0.3865,0.3988,0.3802,0.3762,0.3558,0.352,0.3845,0.3824,0.4015,0.4014,0.4013,0.4013,0,0.2159,0.225,0.2309,0.2448,0.2493,0.2542,0.2713,0.2787,0.2964,0.3123,0.32,0.3465,0.3651,0.3791,0.3948,0.3874,0.3919,0.3888,0.3634,0.3558,0.366,0.3646,0.3728,0.3722,0.3717,0.3712,0.3709,0,0.2113,0.214,0.2262,0.2294,0.2355,0.2455,0.2531,0.2725,0.2822,0.3125,0.3199,0.3449,0.3584,0.3724,0.3695,0.3723,0.3875,0.3458,0.3337,0.3684,0.3638,0.363,0.3622,0.3129,0.3121,0.3114,0.3109,0,0.2012,0.2059,0.2106,0.2172,0.2244,0.2324,0.246,0.2522,0.2777,0.2918,0.3142,0.3271,0.3427,0.3357,0.3354,0.3337,0.3423,0.3312,0.379,0.3196,0.3115,0.307,0.3083,0.305,0.3056,0.306,0.3063,0.3066,0.1918,0.192,0.1989,0.2045,0.2115,0.2187,0.2233,0.2398,0.2531,0.2721,0.2913,0.2999,0.3057,0.2912,0.287,0.2845,0.3035,0.2919,0.2942,0.2972,0.2843,0.2752,0.2597,0.26,0.2603,0.2605,0.2607,0,0.1803,0.1835,0.1867,0.1932,0.1953,0.206,0.2179,0.2218,0.2341,0.249,0.2607,0.2376,0.2346,0.2485,0.2319,0.2245,0.2261,0.2209,0.2252,0.231,0.2362,0.2205,0.1789,0.1787,0.1784,0.1782,0,0,0.1743,0.1737,0.1765,0.1764,0.1821,0.1858,0.1912,0.199,0.2076,0.2046,0.2055,0.2178,0.2332,0.1986,0.1962,0.1879,0.2082,0.1812,0.2471,0.2579,0.2628,0.2774,0.2595,0,0,0,0,0]},{"header":{"parameterUnit":"m.s-1","parameterCategory":2,"la1":30.2991,"la2":30.254,"lo1":-89.0895,"lo2":-89.0444,"dy":0.0017,"dx":0.0017,"nx":28,"ny":28,"refTime":"2023-08-14T09:00:00:Z","depth":"2","parameterNumber":3,"parameterNumberName":"V-component_of_CURRENTS"},"data":[0,0,0,0,0,0,0,0,0,0,0,0,0,0,0,0,0,0,0,0,0,0,0,0,0,0,0,0,0,0,0,0,0,0,0,0,0,0,0,0,0,0,0,0,0,0,0,0,0,0,0,0,0,0,0,0,0,0,-0.05,-0.0501,0,-0.053,-0.053,-0.053,-0.0582,-0.0583,-0.0584,-0.0585,-0.0663,-0.0665,-0.0666,0,0,0,0,0,0,0,0,0,0,0,0,0,-0.0529,-0.0528,-0.05,-0.0501,-0.0501,-0.053,-0.053,-0.053,-0.0582,-0.0583,-0.0585,-0.0586,-0.0663,-0.0664,-0.0666,0,0,0,0,0,0,0,0,0,0,0,0,0,-0.0532,-0.0527,-0.05,-0.0531,-0.0534,-0.053,-0.053,-0.0531,-0.0582,-0.0583,-0.0585,-0.0586,-0.0663,-0.0664,-0.0666,-0.0644,0,0,-0.0671,-0.0672,0,0,0,0,0,0,0,0,-0.0532,-0.0531,-0.0526,-0.0529,-0.0533,-0.0555,-0.0569,-0.0571,-0.0581,-0.0563,-0.0585,-0.0587,-0.0631,-0.0635,-0.0635,-0.0647,-0.0651,-0.0671,-0.0672,-0.0673,-0.0673,0,0,0,0,0,0,0,-0.0531,-0.053,-0.0511,-0.0527,-0.053,-0.0558,-0.0559,-0.057,-0.0588,-0.0564,-0.0568,-0.0573,-0.0633,-0.0633,-0.0638,-0.0652,-0.0671,-0.0672,-0.0673,-0.0674,-0.0678,-0.0677,0,0,0,0,0,0,-0.0526,-0.0529,-0.051,-0.0512,-0.0537,-0.0556,-0.0558,-0.0545,-0.0587,-0.0594,-0.0571,-0.0575,-0.063,-0.0636,-0.0641,-0.061,-0.0673,-0.0674,-0.0675,-0.0679,-0.0677,-0.0676,0,0,0,0,0,0,-0.0526,-0.0523,-0.0509,-0.0524,-0.0524,-0.0553,-0.0539,-0.0545,-0.055,-0.0592,-0.06,-0.0572,-0.0631,-0.0638,-0.0647,-0.0614,-0.0675,-0.0676,-0.068,-0.0678,-0.0677,-0.0554,0,0,0,0,0,0,-0.0526,-0.0522,-0.0508,-0.0522,-0.0523,-0.0496,-0.0538,-0.0544,-0.0551,-0.0556,-0.0594,-0.0603,-0.0633,-0.0644,-0.0648,-0.0618,-0.0678,-0.0681,-0.0679,-0.0677,-0.0559,-0.0549,-0.054,0,0,0,0,0,-0.0527,-0.0493,-0.0507,-0.0505,-0.0503,-0.0495,-0.0496,-0.0524,-0.0549,-0.0537,-0.0568,-0.0602,-0.0637,-0.0644,-0.0649,-0.0618,-0.0681,-0.0679,-0.0678,-0.0564,-0.0551,-0.054,0,0,0,0,0,0,-0.0487,-0.0496,-0.0511,-0.0479,-0.0486,-0.0504,-0.0491,-0.0516,-0.053,-0.0535,-0.0585,-0.0594,-0.0591,-0.0624,-0.0631,-0.0618,-0.0667,-0.0666,-0.0578,-0.0567,-0.0557,-0.0514,-0.0679,0,0,0,0,0,-0.0474,-0.0455,-0.0471,-0.0443,-0.0442,-0.0467,-0.0468,-0.0485,-0.0502,-0.051,-0.0538,-0.0569,-0.0584,-0.0592,-0.0611,-0.0597,-0.0652,-0.0585,-0.0576,-0.0567,-0.0537,-0.0631,-0.0627,-0.067,-0.067,-0.067,0,0,-0.0449,-0.0452,-0.0441,-0.0435,-0.0439,-0.0415,-0.047,-0.0458,-0.0442,-0.0515,-0.0497,-0.0533,-0.0575,-0.0561,-0.0563,-0.0585,-0.0579,-0.0564,-0.0556,-0.0531,-0.0629,-0.0625,-0.0621,-0.0669,-0.0669,-0.0669,0,0,-0.0384,-0.0392,-0.0354,-0.0356,-0.036,-0.0372,-0.0367,-0.0382,-0.0392,-0.038,-0.0432,-0.0454,-0.0466,-0.0494,-0.0509,-0.046,-0.0527,-0.0463,-0.0371,-0.0463,-0.046,-0.0458,-0.05,-0.0503,-0.0455,-0.0455,-0.0454,0,-0.0354,-0.031,-0.0341,-0.0308,-0.0298,-0.0347,-0.0302,-0.0313,-0.0331,-0.0333,-0.0359,-0.0389,-0.0434,-0.0425,-0.04,-0.0436,-0.0479,-0.0409,-0.0449,-0.0449,-0.0449,-0.0493,-0.0498,-0.0448,-0.0449,-0.045,-0.045,0,-0.0264,-0.0234,-0.0209,-0.0185,-0.0177,-0.0147,-0.0169,-0.0164,-0.0186,-0.0208,-0.0208,-0.0263,-0.0281,-0.03,-0.0324,-0.0332,-0.0357,-0.043,-0.0476,-0.0437,-0.0486,-0.0493,-0.044,-0.0442,-0.0444,-0.0445,0,0,-0.0188,-0.015,-0.0145,-0.0112,-0.0111,-0.0089,-0.0063,-0.0052,-0.0031,-0.0064,-0.0043,-0.0075,-0.0115,-0.0133,-0.0184,-0.0244,-0.0283,-0.0309,-0.0317,-0.034,-0.0441,-0.0464,-0.0475,-0.0365,-0.0366,-0.0367,-0.0465,0,-0.0107,-0.002,-0.0027,0.0056,0.0102,0.0067,0.0104,0.0097,0.0076,0.0079,0.0007,0.0006,-0.005,-0.0049,-0.0116,-0.0241,-0.0298,-0.0246,-0.0481,-0.0487,-0.0507,-0.0484,-0.0423,-0.0507,-0.0473,-0.0475,-0.0476,0,-0.002,0.0027,0.0122,0.0184,0.0202,0.0238,0.0276,0.0303,0.0274,0.0255,0.0226,0.0165,0.0114,0.0033,-0.0143,-0.0102,-0.024,-0.0352,-0.0362,-0.0426,-0.0524,-0.0546,-0.0523,-0.0489,-0.0488,-0.0487,-0.0486,0,0.005,0.0131,0.0212,0.023,0.0289,0.0324,0.0356,0.0354,0.0392,0.0361,0.0378,0.0283,0.026,0.0068,-0.0114,-0.0142,-0.0325,-0.0424,-0.0572,-0.0574,-0.0589,-0.0591,-0.0569,-0.0569,-0.0569,-0.0569,-0.0568,0,0.0136,0.0204,0.0251,0.0295,0.0399,0.0407,0.0502,0.0507,0.053,0.0593,0.0481,0.0513,0.0266,0.0143,-0.0072,-0.0305,-0.0305,-0.0532,-0.0604,-0.0541,-0.0538,-0.0583,-0.0584,-0.0572,-0.0572,-0.0571,-0.057,0,0.0208,0.0236,0.0336,0.0408,0.0436,0.051,0.0607,0.0675,0.0678,0.0755,0.0758,0.0682,0.0525,0.028,-0.0018,-0.0229,-0.0481,-0.0571,-0.0443,-0.0498,-0.0682,-0.0674,-0.0773,-0.0775,-0.0777,-0.0778,-0.0779,0,0.0263,0.0317,0.0413,0.0475,0.0513,0.0616,0.0696,0.0742,0.0816,0.0874,0.0922,0.082,0.0742,0.0327,-0.0034,-0.0414,-0.0464,-0.0618,-0.0689,-0.0643,-0.0704,-0.0695,-0.0686,-0.0652,-0.0652,-0.0652,-0.0652,0,0.0364,0.0384,0.0457,0.0572,0.0664,0.0785,0.0897,0.0979,0.1051,0.1109,0.1177,0.1115,0.0764,0.0405,-0.0091,-0.034,-0.0561,-0.0633,-0.0633,-0.0608,-0.0538,-0.0595,-0.0588,-0.0651,-0.0651,-0.0651,-0.0651,-0.0651,0.0428,0.049,0.0564,0.0678,0.0792,0.0936,0.1047,0.1178,0.131,0.1389,0.1318,0.1203,0.0806,0.0147,-0.019,-0.0526,-0.0577,-0.0744,-0.0741,-0.0739,-0.0705,-0.0642,-0.0765,-0.0766,-0.0767,-0.0767,-0.0768,0,0.0492,0.0556,0.067,0.0804,0.0939,0.0983,0.1172,0.1304,0.1484,0.1478,0.1471,0.1013,0.061,0.0221,-0.0283,-0.0645,-0.0641,-0.0726,-0.0653,-0.0653,-0.0653,-0.0612,-0.065,-0.065,-0.065,-0.065,0,0,0.0527,0.0624,0.0679,0.0893,0.1002,0.1188,0.1302,0.1517,0.1586,0.1544,0.1407,0.1154,0.0669,0.03,-0.0123,-0.0354,-0.0412,-0.0394,-0.0461,-0.0322,-0.0317,-0.0647,-0.0583,0,0,0,0,0]}],[{"header":{"parameterUnit":"m.s-1","parameterCategory":2,"la1":30.2991,"la2":30.254,"lo1":-89.0895,"lo2":-89.0444,"dy":0.0017,"dx":0.0017,"nx":28,"ny":28,"refTime":"2023-08-14T09:00:00:Z","depth":"4","parameterNumber":2,"parameterNumberName":"U-component_of_CURRENTS"},"data":[0,0,0,0,0,0,0,0,0,0,0,0,0,0,0,0,0,0,0,0,0,0,0,0,0,0,0,0,0,0,0,0,0,0,0,0,0,0,0,0,0,0,0,0,0,0,0,0,0,0,0,0,0,0,0,0,0,0,0.0872,0.0872,0,0.0917,0.0918,0.0918,0.0963,0.0963,0.0964,0.0964,0.107,0.1073,0.1075,0,0,0,0,0,0,0,0,0,0,0,0,0,0.0824,0.0825,0.0872,0.0872,0.0873,0.0917,0.0918,0.0918,0.0963,0.0963,0.0964,0.0965,0.107,0.1072,0.1075,0,0,0,0,0,0,0,0,0,0,0,0,0,0.0855,0.0825,0.0872,0.09,0.0903,0.0917,0.0918,0.0919,0.0963,0.0963,0.0964,0.0965,0.1069,0.1072,0.1076,0.1081,0,0,0.1086,0.1088,0,0,0,0,0,0,0,0,0.0854,0.0857,0.0895,0.0898,0.0901,0.0935,0.094,0.0976,0.0962,0.0941,0.0964,0.0965,0.103,0.1036,0.1043,0.1086,0.1091,0.1087,0.1089,0.109,0.1091,0,0,0,0,0,0,0,0.0851,0.0855,0.0891,0.0896,0.0899,0.091,0.0916,0.0947,0.0982,0.0943,0.0946,0.095,0.1032,0.104,0.1046,0.1092,0.1086,0.109,0.1092,0.1093,0.1164,0.1164,0,0,0,0,0,0,0.0844,0.0853,0.0889,0.0892,0.0878,0.091,0.0916,0.0924,0.098,0.0989,0.0949,0.0951,0.1033,0.1042,0.105,0.1139,0.109,0.1093,0.1095,0.1165,0.1164,0.1164,0,0,0,0,0,0,0.0843,0.0847,0.0887,0.0873,0.0879,0.091,0.0918,0.0924,0.0965,0.0984,0.0994,0.0987,0.1034,0.1045,0.1095,0.114,0.1095,0.1098,0.1165,0.1165,0.1164,0.1266,0,0,0,0,0,0,0.0841,0.0846,0.0863,0.0872,0.0879,0.0921,0.0917,0.0924,0.0964,0.0969,0.102,0.1028,0.1036,0.109,0.1098,0.1144,0.1101,0.1165,0.1165,0.1164,0.1263,0.127,0.1275,0,0,0,0,0,0.0839,0.0839,0.0863,0.0868,0.0897,0.0922,0.0928,0.0952,0.0965,0.0991,0.1015,0.1029,0.1092,0.1093,0.1103,0.1152,0.1165,0.1165,0.1164,0.1261,0.1268,0.1275,0,0,0,0,0,0,0.0818,0.0844,0.087,0.0878,0.0917,0.093,0.0947,0.0972,0.1011,0.1024,0.1041,0.1051,0.1094,0.1102,0.1102,0.116,0.1125,0.1127,0.1195,0.1202,0.1208,0.1192,0.1104,0,0,0,0,0,0.0824,0.0843,0.0873,0.0889,0.0904,0.0938,0.0956,0.0984,0.101,0.103,0.1068,0.1089,0.1093,0.1134,0.1132,0.1197,0.1174,0.1223,0.1229,0.1234,0.1222,0.1214,0.1219,0.1163,0.1163,0.1163,0,0,0.0825,0.0839,0.0855,0.0889,0.0915,0.0939,0.0952,0.0992,0.1021,0.1035,0.1096,0.1108,0.1102,0.1148,0.1172,0.1178,0.1242,0.1234,0.1239,0.1223,0.1214,0.122,0.1225,0.1162,0.1162,0.1162,0,0,0.0823,0.0848,0.0866,0.0899,0.0948,0.0961,0.0982,0.1031,0.1064,0.1117,0.1115,0.1156,0.1195,0.1207,0.1208,0.1246,0.1248,0.1257,0.132,0.1315,0.132,0.1324,0.1329,0.1333,0.1294,0.1294,0.1294,0,0.0828,0.0851,0.0878,0.0905,0.0931,0.0972,0.1004,0.1031,0.11,0.1132,0.1144,0.1193,0.1207,0.1246,0.1262,0.1264,0.1264,0.1308,0.1326,0.1329,0.1332,0.1336,0.1339,0.1299,0.1298,0.1298,0.1297,0,0.0837,0.0872,0.0881,0.0927,0.0961,0.0995,0.1036,0.109,0.1131,0.1164,0.1225,0.1249,0.129,0.1302,0.13,0.1342,0.1337,0.1314,0.1319,0.1344,0.1346,0.1348,0.1306,0.1304,0.1303,0.1301,0,0,0.0798,0.0875,0.0884,0.0923,0.0982,0.1008,0.1057,0.1112,0.1152,0.1224,0.1279,0.1308,0.1355,0.1356,0.1385,0.1399,0.1435,0.1389,0.1387,0.1413,0.1443,0.1405,0.1403,0.1433,0.1433,0.1434,0.1448,0,0.0804,0.0858,0.0894,0.0954,0.0984,0.1043,0.1072,0.1136,0.1195,0.1261,0.1305,0.1354,0.1366,0.1419,0.1435,0.1423,0.1438,0.1433,0.1395,0.1394,0.1372,0.1402,0.1434,0.1449,0.1449,0.1449,0.1449,0,0.0791,0.0836,0.0895,0.0975,0.0992,0.1033,0.1114,0.1162,0.1245,0.1305,0.139,0.1414,0.148,0.1463,0.1484,0.1492,0.1473,0.1452,0.1452,0.1374,0.1357,0.1406,0.1451,0.1451,0.1451,0.1451,0.145,0,0.0739,0.0829,0.0878,0.0909,0.0996,0.1046,0.1102,0.1185,0.1235,0.1363,0.1419,0.1482,0.1549,0.152,0.1519,0.1508,0.1507,0.1481,0.1422,0.142,0.1407,0.1401,0.1456,0.1456,0.1456,0.1456,0.1456,0,0.0708,0.0752,0.087,0.0899,0.0956,0.1041,0.1116,0.1192,0.1295,0.1355,0.1461,0.1511,0.1565,0.1577,0.1534,0.1503,0.153,0.1427,0.1418,0.1451,0.1451,0.141,0.1404,0.1456,0.1456,0.1456,0.1456,0,0.0641,0.0714,0.0776,0.0893,0.0933,0.0988,0.1123,0.1176,0.1301,0.1393,0.1438,0.1557,0.1595,0.1611,0.1588,0.1544,0.1487,0.1459,0.152,0.1514,0.1398,0.1397,0.1388,0.1386,0.1385,0.1384,0.1384,0,0.0614,0.0637,0.0761,0.0807,0.0872,0.0975,0.1031,0.1169,0.1238,0.139,0.1418,0.1517,0.1578,0.1533,0.1551,0.15,0.1469,0.1454,0.1394,0.1397,0.1389,0.139,0.1391,0.1382,0.1382,0.1381,0.1381,0,0.0553,0.0597,0.0651,0.0741,0.0822,0.0905,0.1018,0.1048,0.1202,0.1316,0.1381,0.1412,0.1475,0.1484,0.1495,0.1431,0.1469,0.1442,0.1442,0.1386,0.139,0.1383,0.1385,0.1377,0.1378,0.1378,0.1378,0,0.0504,0.0522,0.0589,0.0666,0.0761,0.0826,0.0891,0.0986,0.1057,0.1234,0.1241,0.1347,0.1453,0.1446,0.1417,0.1408,0.1368,0.1312,0.1319,0.1323,0.1297,0.1292,0.1242,0,0,0,0,0,0.0461,0.0474,0.052,0.0598,0.069,0.0746,0.0873,0.0942,0.1078,0.1098,0.1175,0.1217,0.1259,0.1302,0.1273,0.1361,0.1353,0.1322,0.1287,0.1356,0.136,0.1336,0,0,0,0,0,0,0.043,0.0464,0.0482,0.0529,0.0574,0.0661,0.0738,0.0828,0.0853,0.0996,0.1019,0.1143,0.1184,0.125,0.1244,0.1258,0.1214,0.1389,0.1387,0.1354,0.1358,0.1361,0.1338,0,0,0,0,0]},{"header":{"parameterUnit":"m.s-1","parameterCategory":2,"la1":30.2991,"la2":30.254,"lo1":-89.0895,"lo2":-89.0444,"dy":0.0017,"dx":0.0017,"nx":28,"ny":28,"refTime":"2023-08-14T09:00:00:Z","depth":"4","parameterNumber":3,"parameterNumberName":"V-component_of_CURRENTS"},"data":[0,0,0,0,0,0,0,0,0,0,0,0,0,0,0,0,0,0,0,0,0,0,0,0,0,0,0,0,0,0,0,0,0,0,0,0,0,0,0,0,0,0,0,0,0,0,0,0,0,0,0,0,0,0,0,0,0,0,-0.0229,-0.023,0,-0.0293,-0.0294,-0.0295,-0.0309,-0.0308,-0.0308,-0.0307,-0.0427,-0.0431,-0.0435,0,0,0,0,0,0,0,0,0,0,0,0,0,-0.0154,-0.0155,-0.0229,-0.023,-0.0231,-0.0293,-0.0294,-0.0295,-0.0309,-0.0308,-0.0308,-0.0307,-0.0426,-0.043,-0.0435,0,0,0,0,0,0,0,0,0,0,0,0,0,-0.0199,-0.0155,-0.0229,-0.0245,-0.0247,-0.0293,-0.0294,-0.0295,-0.0309,-0.0308,-0.0307,-0.0307,-0.0425,-0.043,-0.0435,-0.0484,0,0,-0.0452,-0.0455,0,0,0,0,0,0,0,0,-0.0197,-0.0202,-0.0242,-0.0244,-0.0246,-0.0292,-0.0311,-0.0361,-0.0309,-0.0286,-0.0307,-0.0306,-0.0388,-0.0396,-0.041,-0.049,-0.0495,-0.0453,-0.0456,-0.0458,-0.046,0,0,0,0,0,0,0,-0.0193,-0.02,-0.0255,-0.0243,-0.0245,-0.0261,-0.0266,-0.0321,-0.0342,-0.0288,-0.0289,-0.0296,-0.0389,-0.0404,-0.0413,-0.0497,-0.0453,-0.0457,-0.0461,-0.0463,-0.0628,-0.0629,0,0,0,0,0,0,-0.0184,-0.0197,-0.0253,-0.0257,-0.0219,-0.0262,-0.0268,-0.0278,-0.034,-0.0348,-0.0296,-0.0296,-0.0395,-0.0406,-0.0417,-0.049,-0.0458,-0.0464,-0.0467,-0.0627,-0.0628,-0.063,0,0,0,0,0,0,-0.0182,-0.0189,-0.025,-0.0227,-0.0236,-0.0264,-0.0275,-0.028,-0.0304,-0.0345,-0.0354,-0.0315,-0.0395,-0.0409,-0.0471,-0.0495,-0.0466,-0.0471,-0.0626,-0.0627,-0.0629,-0.063,0,0,0,0,0,0,-0.018,-0.0188,-0.0201,-0.0227,-0.0237,-0.0279,-0.0276,-0.0282,-0.0308,-0.0309,-0.0365,-0.0375,-0.0395,-0.0463,-0.0476,-0.0502,-0.0475,-0.0624,-0.0626,-0.0628,-0.0629,-0.0632,-0.0634,0,0,0,0,0,-0.0177,-0.0187,-0.0201,-0.0208,-0.0251,-0.028,-0.0287,-0.0304,-0.031,-0.0322,-0.0361,-0.0373,-0.0485,-0.0468,-0.0484,-0.0512,-0.0623,-0.0626,-0.0628,-0.0628,-0.0631,-0.0634,0,0,0,0,0,0,-0.0166,-0.019,-0.0206,-0.0225,-0.0254,-0.0282,-0.0296,-0.0313,-0.0354,-0.0359,-0.0396,-0.0409,-0.0467,-0.0494,-0.0475,-0.0564,-0.0554,-0.056,-0.0548,-0.0552,-0.0554,-0.0516,-0.048,0,0,0,0,0,-0.017,-0.0182,-0.0213,-0.0233,-0.0244,-0.0277,-0.0294,-0.0309,-0.0343,-0.036,-0.0405,-0.045,-0.049,-0.0523,-0.0562,-0.0625,-0.0624,-0.065,-0.0653,-0.0655,-0.0635,-0.0654,-0.0655,-0.0638,-0.0638,-0.0638,0,0,-0.0176,-0.0188,-0.02,-0.0232,-0.0254,-0.0266,-0.0285,-0.0312,-0.0325,-0.0371,-0.0416,-0.0464,-0.0507,-0.0563,-0.0592,-0.0591,-0.0664,-0.0658,-0.0659,-0.0638,-0.0656,-0.0658,-0.0659,-0.0639,-0.0639,-0.0639,0,0,-0.0175,-0.0201,-0.0206,-0.0226,-0.0257,-0.0272,-0.0282,-0.0325,-0.0345,-0.0399,-0.0427,-0.0485,-0.0562,-0.0592,-0.0615,-0.0661,-0.0672,-0.0687,-0.068,-0.07,-0.07,-0.0701,-0.0713,-0.0715,-0.0695,-0.0695,-0.0695,0,-0.018,-0.0188,-0.0215,-0.0221,-0.0232,-0.0271,-0.0277,-0.0305,-0.0367,-0.0388,-0.0409,-0.0518,-0.0564,-0.0616,-0.0632,-0.0665,-0.0675,-0.0664,-0.0701,-0.0701,-0.0702,-0.0714,-0.0716,-0.0695,-0.0695,-0.0695,-0.0695,0,-0.0176,-0.0188,-0.0192,-0.0206,-0.0226,-0.0239,-0.0272,-0.0306,-0.0341,-0.0373,-0.0444,-0.0514,-0.0572,-0.061,-0.0637,-0.0678,-0.0684,-0.0695,-0.0685,-0.0703,-0.0716,-0.0718,-0.0695,-0.0695,-0.0695,-0.0695,0,0,-0.0168,-0.0183,-0.0186,-0.0184,-0.0216,-0.0227,-0.0252,-0.0282,-0.0295,-0.0375,-0.0404,-0.0496,-0.0544,-0.0572,-0.0631,-0.0662,-0.0692,-0.0685,-0.0686,-0.0684,-0.0733,-0.0707,-0.0707,-0.0714,-0.0714,-0.0714,-0.0743,0,-0.0155,-0.0149,-0.0165,-0.0164,-0.0162,-0.0199,-0.0211,-0.025,-0.0295,-0.0338,-0.0417,-0.0467,-0.0526,-0.0566,-0.0608,-0.0671,-0.0695,-0.0682,-0.0726,-0.0726,-0.0691,-0.0707,-0.0714,-0.0745,-0.0745,-0.0745,-0.0745,0,-0.0139,-0.0134,-0.0125,-0.0127,-0.013,-0.0137,-0.016,-0.0181,-0.0243,-0.0283,-0.0355,-0.0414,-0.0492,-0.0528,-0.0628,-0.0621,-0.0667,-0.071,-0.0713,-0.0681,-0.0703,-0.0723,-0.0748,-0.0748,-0.0748,-0.0748,-0.0748,0,-0.0104,-0.0104,-0.0089,-0.0094,-0.0105,-0.0111,-0.0122,-0.0169,-0.0176,-0.0251,-0.0269,-0.0372,-0.0421,-0.0499,-0.0606,-0.0616,-0.0697,-0.072,-0.0734,-0.0733,-0.0745,-0.0744,-0.0757,-0.0757,-0.0757,-0.0757,-0.0757,0,-0.0074,-0.0066,-0.007,-0.0064,-0.0041,-0.0072,-0.0065,-0.0096,-0.0131,-0.0131,-0.0238,-0.0265,-0.0414,-0.0488,-0.0581,-0.0664,-0.0678,-0.0721,-0.0736,-0.0749,-0.0748,-0.0747,-0.0746,-0.0758,-0.0758,-0.0758,-0.0758,0,-0.0046,-0.0048,-0.0028,-0.0028,-0.0023,-0.0013,-0.0012,-0.0007,-0.005,-0.0055,-0.0071,-0.0182,-0.0289,-0.0426,-0.0556,-0.0618,-0.0706,-0.0725,-0.0722,-0.0739,-0.0734,-0.0733,-0.0739,-0.0738,-0.0738,-0.0737,-0.0737,0,-0.0031,-0.0014,0.0006,0.0029,0.0029,0.0044,0.006,0.0033,0.0043,0.0002,0.0009,-0.0097,-0.0184,-0.0346,-0.0502,-0.0666,-0.0686,-0.0719,-0.0732,-0.0716,-0.0731,-0.0731,-0.073,-0.0736,-0.0736,-0.0735,-0.0735,0,0.0006,0.0011,0.0029,0.0079,0.0106,0.0133,0.0152,0.0174,0.0152,0.0123,0.0088,-0.002,-0.0141,-0.0316,-0.0447,-0.0566,-0.0696,-0.0713,-0.0715,-0.0728,-0.0713,-0.0728,-0.0728,-0.0733,-0.0733,-0.0734,-0.0734,0,0.0033,0.0054,0.0086,0.0129,0.0169,0.0206,0.021,0.0224,0.0229,0.0192,0.0182,0.0027,-0.0072,-0.0262,-0.0383,-0.0505,-0.0534,-0.0554,-0.0565,-0.0569,-0.0521,-0.0477,-0.0426,0,0,0,0,0,0.0063,0.0093,0.0137,0.018,0.0219,0.0235,0.027,0.0269,0.0262,0.026,0.0225,0.0113,-0.0084,-0.0189,-0.0303,-0.0384,-0.0565,-0.0518,-0.0595,-0.0721,-0.0724,-0.0695,0,0,0,0,0,0,0.0086,0.0128,0.0144,0.0215,0.0246,0.0287,0.0303,0.0298,0.0293,0.027,0.0159,0.0105,-0.0103,-0.0022,-0.0302,-0.0343,-0.0398,-0.0622,-0.0623,-0.072,-0.0722,-0.0724,-0.0695,0,0,0,0,0]}]]